MERIDEN-MARKHAM, CT current weather conditions

sailwx.info

Wind from 320 at 3 knots

Air temperature 2.0° C
Visibility: greater than 0.4 NM
Dewpoint 1.0° C
Present weather: Rain. Fog.

Last reported at 2019-Dec-09 13:00 UTC.
Time now 2019-Dec-09 13:58 UTC

Location: N 41°31' W 072°50'.
View on Google Maps.

See reports from other nearby stations

  
Tides and Currents Weather Stations Pressure Air Temp Water Temp Dewpoint Dewpoint Depression Visibility Wind Speed Wind Dir Waves Ship Positions
date/time (UTC)wind fromknots sea level pressurealtimeterstation pressurevisibilityair tempwater tempwave heightnotes
2019-Dec-09 13:00 320 3 0.4 2.0 Rain. Fog.
2019-Dec-09 12:55 320 3 0.4 2.0 Light rain. Fog.
2019-Dec-09 12:53 0.4 2.2 Rain. Fog.
2019-Dec-09 12:50 0.4 2.0 Rain. Fog.
2019-Dec-09 12:45 0.4 2.0 Light rain. Fog.
2019-Dec-09 12:43 0.4 1.7 Rain. Fog.
2019-Dec-09 12:40 0.7 2.0 Rain. Mist.
2019-Dec-09 12:35 0.9 2.0 Light rain. Mist.
2019-Dec-09 12:30 0.9 2.0 Light rain. Mist.
2019-Dec-09 12:25 1.1 2.0 Rain. Mist.
2019-Dec-09 12:20 1.5 2.0 Light rain. Mist.
2019-Dec-09 12:15 1.5 2.0 Rain. Mist.
2019-Dec-09 12:10 1.3 2.0 Light rain. Mist.
2019-Dec-09 12:05 1.1 2.0 Light rain. Mist.
2019-Dec-09 12:00 1.1 1.0 Rain. Mist.
2019-Dec-09 11:55 1.1 2.0 Light rain. Mist.
2019-Dec-09 11:53 1.1 1.7 Light rain. Mist.
2019-Dec-09 11:50 1.1 2.0 Light rain. Mist.
2019-Dec-09 11:45 1.1 2.0 Light rain. Mist.
2019-Dec-09 11:40 1.1 2.0 Light rain. Mist.
2019-Dec-09 11:35 1.1 2.0 Light rain. Mist.
2019-Dec-09 11:30 1.1 2.0 Light rain. Mist.
2019-Dec-09 11:25 1.1 2.0 Light rain. Mist.
2019-Dec-09 11:20 1.1 2.0 Light rain. Mist.
2019-Dec-09 11:15 1.1 2.0 Light rain. Mist.
2019-Dec-09 11:10 1.1 1.0 Light rain. Mist.
2019-Dec-09 11:03 1.1 1.1 Light rain. Mist.
2019-Dec-09 11:00 0.9 1.0 Light rain. Mist.
2019-Dec-09 10:53 0.9 1.1 Light rain. Mist.
2019-Dec-09 10:45 0.9 1.0 Light rain. Mist.
2019-Dec-09 10:40 1.1 1.0 Light rain. Mist.
2019-Dec-09 10:35 1.1 1.0 Light rain. Mist.
2019-Dec-09 10:30 1.1 1.0 Light rain. Mist.
2019-Dec-09 10:25 1.3 1.0 Light rain. Mist.
2019-Dec-09 10:20 1.1 1.0 Light rain. Mist.
2019-Dec-09 10:10 1.3 1.0 Light rain. Mist.
2019-Dec-09 10:05 1.3 1.0 Light rain. Mist.
2019-Dec-09 10:00 1.3 1.0 Light rain. Mist.
2019-Dec-09 09:55 1.5 1.0 Precipitation. Mist.
2019-Dec-09 09:53 1.5 1.1 Precipitation. Mist.
2019-Dec-09 09:50 1.5 1.0 Precipitation. Mist.
2019-Dec-09 09:45 1.7 1.0 Mist.
2019-Dec-09 09:40 1.7 1.0 Mist.
2019-Dec-09 09:30 1.5 1.0 Mist.
2019-Dec-09 09:25 1.5 1.0 Precipitation. Mist.
2019-Dec-09 09:22 1.5 0.6 Precipitation. Mist.
2019-Dec-09 09:20 1.5 1.0 Precipitation. Mist.
2019-Dec-09 09:15 1.7 1.0 Precipitation. Mist.
2019-Dec-09 09:10 1.7 1.0 Precipitation. Mist.
2019-Dec-09 09:08 1.7 0.6 Precipitation. Mist.
2019-Dec-09 09:05 1.7 1.0 Precipitation. Mist.
2019-Dec-09 09:00 1.5 1.0 Mist.
2019-Dec-09 08:55 1.5 1.0 Mist.
2019-Dec-09 08:53 1.5 0.6 Mist.
2019-Dec-09 08:50 1.7 1.0 Mist.
2019-Dec-09 08:45 2.2 1.0 Mist.
2019-Dec-09 08:40 2.2 1.0 Mist.
2019-Dec-09 08:36 2.2 0.6 Precipitation. Mist.
2019-Dec-09 08:35 2.2 1.0 Precipitation. Mist.
2019-Dec-09 08:30 2.2 1.0 Precipitation. Mist.
2019-Dec-09 08:25 2.2 1.0 Mist.
2019-Dec-09 08:24 2.2 0.6 Mist.
2019-Dec-09 08:20 2.6-0.0 Mist.
2019-Dec-09 08:15 3.5-0.0 Mist.
2019-Dec-09 08:10 3.5-0.0 Mist.
2019-Dec-09 08:05 3.5-0.0 Mist.
2019-Dec-09 08:00 3.5-0.0 Mist.
2019-Dec-09 07:55 3.5-0.0 Mist.
2019-Dec-09 07:53 3.5-0.0 Mist.
2019-Dec-09 07:50 3.5-0.0 Precipitation. Mist.
2019-Dec-09 07:45 3.5-0.0 Precipitation. Mist.
2019-Dec-09 07:40 3.5-0.0 Precipitation. Mist.
2019-Dec-09 07:39 3.5-0.0 Precipitation. Mist.
2019-Dec-09 07:35 3.5-0.0 Precipitation. Mist.
2019-Dec-09 07:30 3.5-0.0 Precipitation. Mist.
2019-Dec-09 07:25 4.3-0.0 Precipitation. Mist.
2019-Dec-09 07:20 5.2-0.0 Precipitation. Mist.
2019-Dec-09 07:15 7.0-0.0 Precipitation.
2019-Dec-09 07:10 7.0-0.0
2019-Dec-09 07:05 7.8-0.0
2019-Dec-09 07:00 8.7-0.0
2019-Dec-09 06:55 8.7-0.0
2019-Dec-09 06:53 8.7-0.0
2019-Dec-09 06:50 160 3 8.7-1.0
2019-Dec-09 06:45 160 3 8.7-1.0 Precipitation.
2019-Dec-09 06:40 160 5 7.8-0.0 Precipitation.
2019-Dec-09 06:35 150 6 7.8-1.0 Precipitation.
2019-Dec-09 06:25 140 3 8.7-1.0 Precipitation.
2019-Dec-09 06:20 8.7-2.0
2019-Dec-09 06:15 8.7-2.0
2019-Dec-09 06:10 8.7-2.0
2019-Dec-09 06:05 120 3 8.7-2.0
2019-Dec-09 06:00 8.7-2.0
2019-Dec-09 05:55 8.7-2.0
2019-Dec-09 05:53 8.7-2.2
2019-Dec-09 05:50 8.7-2.0
2019-Dec-09 05:45 100 3 8.7-2.0
2019-Dec-09 05:40 8.7-2.0
2019-Dec-09 05:35 8.7-2.0
2019-Dec-09 05:30 8.7-3.0
2019-Dec-09 05:25 8.7-3.0
2019-Dec-09 05:20 7.8-4.0
2019-Dec-09 05:15 7.8-3.0
2019-Dec-09 05:10 8.7-3.0
2019-Dec-09 05:05 8.7-3.0
2019-Dec-09 05:00 8.7-3.0
2019-Dec-09 04:55 300 3 8.7-3.0
2019-Dec-09 04:53 8.7-3.3
2019-Dec-09 04:50 8.7-3.0
2019-Dec-09 04:45 8.7-3.0
2019-Dec-09 04:40 8.7-3.0
2019-Dec-09 04:35 8.7-3.0
2019-Dec-09 04:30 8.7-3.0
2019-Dec-09 04:25 8.7-3.0
2019-Dec-09 04:20 8.7-3.0
2019-Dec-09 04:15 8.7-3.0
2019-Dec-09 04:10 8.7-3.0
2019-Dec-09 04:05 8.7-3.0
2019-Dec-09 04:00 8.7-3.0
2019-Dec-09 03:55 8.7-4.0
2019-Dec-09 03:53 8.7-3.9
2019-Dec-09 03:50 8.7-4.0
2019-Dec-09 03:45 8.7-4.0
2019-Dec-09 03:40 8.7-3.0
2019-Dec-09 03:35 8.7-3.0
2019-Dec-09 03:30 8.7-3.0
2019-Dec-09 03:25 8.7-3.0
2019-Dec-09 03:20 8.7-3.0
2019-Dec-09 03:15 8.7-3.0
2019-Dec-09 03:10 8.7-3.0
2019-Dec-09 03:05 8.7-3.0
2019-Dec-09 03:00 8.7-3.0
2019-Dec-09 02:55 8.7-3.0
2019-Dec-09 02:53 8.7-2.8
2019-Dec-09 02:50 8.7-3.0
2019-Dec-09 02:45 8.7-2.0
2019-Dec-09 02:40 8.7-3.0
2019-Dec-09 02:35 8.7-3.0
2019-Dec-09 02:30 8.7-3.0
2019-Dec-09 02:25 8.7-3.0
2019-Dec-09 02:20 8.7-3.0
2019-Dec-09 02:15 8.7-3.0
2019-Dec-09 02:10 8.7-3.0
2019-Dec-09 02:05 330 3 8.7-3.0
2019-Dec-09 02:00 8.7-3.0
2019-Dec-09 01:55 350 3 8.7-3.0
2019-Dec-09 01:53 8.7-2.8
2019-Dec-09 01:50 8.7-3.0
2019-Dec-09 01:45 8.7-3.0
2019-Dec-09 01:40 8.7-3.0
2019-Dec-09 01:35 8.7-3.0
2019-Dec-09 01:30 8.7-4.0
2019-Dec-09 01:25 8.7-4.0
2019-Dec-09 01:20 8.7-4.0
2019-Dec-09 01:15 8.7-3.0
2019-Dec-09 01:10 8.7-3.0
2019-Dec-09 01:05 8.7-3.0
2019-Dec-09 01:00 8.7-3.0
2019-Dec-09 00:55 8.7-3.0
2019-Dec-09 00:53 8.7-2.2
2019-Dec-09 00:50 8.7-3.0
2019-Dec-09 00:45 8.7-2.0
2019-Dec-09 00:40 160 3 8.7-2.0
2019-Dec-09 00:35 160 3 8.7-2.0
2019-Dec-09 00:30 180 3 8.7-3.0
2019-Dec-09 00:25 8.7-4.0
2019-Dec-09 00:20 160 3 8.7-4.0
2019-Dec-09 00:15 170 3 8.7-4.0
2019-Dec-09 00:10 8.7-4.0
2019-Dec-09 00:05 8.7-4.0
2019-Dec-09 00:00 8.7-4.0
2019-Dec-08 23:55 8.7-4.0
2019-Dec-08 23:53 8.7-3.9
2019-Dec-08 23:50 8.7-3.0
2019-Dec-08 23:45 8.7-3.0
2019-Dec-08 23:40 8.7-3.0
2019-Dec-08 23:35 8.7-3.0
2019-Dec-08 23:30 8.7-3.0
2019-Dec-08 23:25 8.7-3.0
2019-Dec-08 23:20 8.7-3.0
2019-Dec-08 23:10 8.7-3.0
2019-Dec-08 23:05 8.7-2.0
2019-Dec-08 23:00 8.7-2.0
2019-Dec-08 22:53 8.7-2.2
2019-Dec-08 22:50 8.7-2.0
2019-Dec-08 22:40 8.7-2.0
2019-Dec-08 22:30 8.7-2.0
2019-Dec-08 22:25 8.7-2.0
2019-Dec-08 22:20 8.7-2.0
2019-Dec-08 22:15 8.7-2.0
2019-Dec-08 22:10 8.7-2.0
2019-Dec-08 22:05 8.7-1.0
2019-Dec-08 22:00 8.7-1.0
2019-Dec-08 21:55 8.7-2.0
2019-Dec-08 21:53 8.7-1.7
2019-Dec-08 21:50 8.7-1.0
2019-Dec-08 21:45 8.7-1.0
2019-Dec-08 21:40 8.7-0.0
2019-Dec-08 21:35 8.7-1.0
2019-Dec-08 21:30 8.7-1.0
2019-Dec-08 21:25 8.7-0.0
2019-Dec-08 21:20 170 3 8.7-0.0
2019-Dec-08 21:15 170 3 8.7-0.0
2019-Dec-08 21:10 150 4 8.7-0.0
2019-Dec-08 21:05 150 3 8.7-0.0
2019-Dec-08 21:00 140 5 8.7-0.0
2019-Dec-08 20:55 140 5 8.7 1.0
2019-Dec-08 20:53 150 4 8.7 0.6
2019-Dec-08 20:50 150 5 8.7 1.0
2019-Dec-08 20:45 160 4 8.7 1.0
2019-Dec-08 20:40 170 5 8.7 1.0
2019-Dec-08 20:30 170 6 8.7 1.0
2019-Dec-08 20:25 170 5 8.7 1.0
2019-Dec-08 20:10 170 7 8.7 1.0
2019-Dec-08 20:05 180 6 8.7 1.0
2019-Dec-08 20:00 190 6 8.7 1.0
2019-Dec-08 19:55 200 8 8.7 1.0
2019-Dec-08 19:53 210 8 8.7 0.6
2019-Dec-08 19:50 180 8 8.7 1.0
2019-Dec-08 19:45 190 6 8.7 1.0
2019-Dec-08 19:40 200 10 8.7 1.0
2019-Dec-08 19:35 200 12 8.7 1.0
2019-Dec-08 19:30 190 6 8.7 1.0
2019-Dec-08 19:25 200 7 8.7 1.0
2019-Dec-08 19:20 210 8 8.7 1.0
2019-Dec-08 19:15 190 6 8.7 1.0
2019-Dec-08 19:05 200 5 8.7 1.0
2019-Dec-08 18:55 180 10 8.7 1.0
2019-Dec-08 18:53 190 7 8.7 0.6
2019-Dec-08 18:50 190 9 8.7 1.0
2019-Dec-08 18:45 180 9 8.7 1.0
2019-Dec-08 18:40 180 10 8.7 1.0
2019-Dec-08 18:30 190 9 8.7 1.0
2019-Dec-08 18:25 200 8 8.7 1.0
2019-Dec-08 18:20 180 11 8.7 1.0
2019-Dec-08 18:15 200 9 8.7 1.0
2019-Dec-08 18:10 170 9 8.7 1.0
2019-Dec-08 18:05 180 8 8.7 1.0
2019-Dec-08 18:00 170 10 8.7 1.0
2019-Dec-08 17:55 200 8 8.7 1.0
2019-Dec-08 17:53 190 9 8.7 0.6
2019-Dec-08 17:40 170 9 8.7-0.0
2019-Dec-08 17:30 170 8 8.7-0.0
2019-Dec-08 17:25 180 7 8.7-0.0
2019-Dec-08 17:20 180 8 8.7-0.0
2019-Dec-08 17:15 180 7 8.7-0.0
2019-Dec-08 17:10 190 9 8.7-0.0
2019-Dec-08 17:05 170 8 8.7-0.0
2019-Dec-08 17:00 170 8 8.7-0.0
2019-Dec-08 16:55 180 9 8.7-0.0
2019-Dec-08 16:53 170 6 8.7-0.0
2019-Dec-08 16:50 160 6 8.7-0.0
2019-Dec-08 16:45 170 6 8.7-1.0
2019-Dec-08 16:40 150 6 8.7-1.0
2019-Dec-08 16:35 180 4 8.7-1.0
2019-Dec-08 16:30 180 7 8.7-1.0
2019-Dec-08 16:25 180 6 8.7-1.0
2019-Dec-08 16:20 170 5 8.7-1.0
2019-Dec-08 16:15 160 4 8.7-1.0
2019-Dec-08 16:10 8.7-1.0
2019-Dec-08 16:05 150 5 8.7-1.0
2019-Dec-08 16:00 130 4 8.7-1.0
2019-Dec-08 15:55 160 4 8.7-1.0
2019-Dec-08 15:53 150 2 8.7-1.1
2019-Dec-08 15:50 130 4 8.7-1.0
2019-Dec-08 15:45 130 4 8.7-2.0
2019-Dec-08 15:40 140 4 8.7-2.0
2019-Dec-08 15:35 130 3 8.7-2.0
2019-Dec-08 15:30 8.7-2.0
2019-Dec-08 15:25 130 3 8.7-2.0
2019-Dec-08 15:20 120 3 8.7-3.0
2019-Dec-08 15:15 130 3 8.7-3.0
2019-Dec-08 15:10 130 3 8.7-3.0
2019-Dec-08 15:05 8.7-3.0
2019-Dec-08 15:00 120 3 8.7-3.0
2019-Dec-08 14:55 8.7-3.0
2019-Dec-08 14:53 8.7-3.9
2019-Dec-08 14:50 8.7-3.0
2019-Dec-08 14:45 8.7-4.0
2019-Dec-08 14:40 8.7-4.0
2019-Dec-08 14:35 8.7-4.0
2019-Dec-08 14:30 8.7-4.0
2019-Dec-08 14:25 8.7-4.0
2019-Dec-08 14:20 8.7-4.0
2019-Dec-08 14:15 8.7-5.0
2019-Dec-08 14:10 8.7-5.0
2019-Dec-08 14:05 8.7-6.0
2019-Dec-08 14:00 8.7-6.0
2019-Dec-08 13:55 8.7-7.0
2019-Dec-08 13:53 8.7-6.7
2019-Dec-08 13:50 8.7-6.0
2019-Dec-08 13:45 8.7-7.0
2019-Dec-08 13:35 8.7-7.0
2019-Dec-08 13:30 8.7-7.0
2019-Dec-08 13:15 8.7-8.0
2019-Dec-08 13:05 8.7-8.0
2019-Dec-08 13:00 8.7-8.0
2019-Dec-08 12:55 8.7-9.0
2019-Dec-08 12:53 8.7-8.9
2019-Dec-08 12:50 8.7-9.0
2019-Dec-08 12:45 8.7-9.0
2019-Dec-08 12:40 8.7-9.0
2019-Dec-08 12:35 8.7-10.0
2019-Dec-08 12:30 8.7-10.0
2019-Dec-08 12:25 8.7-11.0
2019-Dec-08 12:20 8.7-11.0
2019-Dec-08 12:15 8.7-11.0
2019-Dec-08 12:10 8.7-11.0
2019-Dec-08 12:05 8.7-11.0
2019-Dec-08 12:00 8.7-11.0
2019-Dec-08 11:55 8.7-11.0
2019-Dec-08 11:53 8.7-10.6
2019-Dec-08 11:50 8.7-11.0
2019-Dec-08 11:45 8.7-11.0
2019-Dec-08 11:40 8.7-11.0
2019-Dec-08 11:35 8.7-10.0
2019-Dec-08 11:30 8.7-10.0
2019-Dec-08 11:25 8.7-9.0
2019-Dec-08 11:20 8.7-9.0
2019-Dec-08 11:15 8.7-10.0
2019-Dec-08 11:10 8.7-10.0
2019-Dec-08 11:05 8.7-10.0
2019-Dec-08 10:55 8.7-10.0
2019-Dec-08 10:53 8.7-10.0
2019-Dec-08 10:45 8.7-11.0
2019-Dec-08 10:40 8.7-11.0
2019-Dec-08 10:35 8.7-10.0
2019-Dec-08 10:30 8.7-10.0
2019-Dec-08 10:25 8.7-10.0
2019-Dec-08 10:20 8.7-10.0
2019-Dec-08 10:15 8.7-10.0
2019-Dec-08 10:10 8.7-10.0
2019-Dec-08 10:05 8.7-10.0
2019-Dec-08 10:00 8.7-9.0
2019-Dec-08 09:55 8.7-9.0
2019-Dec-08 09:53 8.7-9.4
2019-Dec-08 09:50 8.7-9.0
2019-Dec-08 09:45 8.7-9.0
2019-Dec-08 09:40 8.7-9.0
2019-Dec-08 09:35 8.7-9.0
2019-Dec-08 09:30 8.7-10.0
2019-Dec-08 09:25 8.7-10.0
2019-Dec-08 09:20 8.7-10.0
2019-Dec-08 09:15 8.7-9.0
2019-Dec-08 09:10 8.7-9.0
2019-Dec-08 09:05 8.7-9.0
2019-Dec-08 09:00 8.7-9.0
2019-Dec-08 08:55 8.7-9.0
2019-Dec-08 08:53 8.7-8.9
2019-Dec-08 08:50 8.7-9.0
2019-Dec-08 08:45 8.7-9.0
2019-Dec-08 08:40 8.7-9.0
2019-Dec-08 08:35 8.7-9.0
2019-Dec-08 08:30 8.7-9.0
2019-Dec-08 08:25 8.7-10.0
2019-Dec-08 08:20 8.7-10.0
2019-Dec-08 08:15 8.7-10.0
2019-Dec-08 08:10 8.7-10.0
2019-Dec-08 08:05 8.7-9.0
2019-Dec-08 08:00 8.7-9.0
2019-Dec-08 07:55 8.7-9.0
2019-Dec-08 07:53 8.7-8.9
2019-Dec-08 07:50 8.7-9.0
2019-Dec-08 07:45 8.7-8.0
2019-Dec-08 07:40 8.7-9.0
2019-Dec-08 07:35 8.7-9.0
2019-Dec-08 07:25 8.7-8.0
2019-Dec-08 07:20 8.7-8.0
2019-Dec-08 07:15 270 3 8.7-8.0
2019-Dec-08 07:05 8.7-8.0
2019-Dec-08 06:55 8.7-7.0
2019-Dec-08 06:53 8.7-7.2
2019-Dec-08 06:50 8.7-8.0
2019-Dec-08 06:45 8.7-8.0
2019-Dec-08 06:40 8.7-8.0
2019-Dec-08 06:35 8.7-8.0
2019-Dec-08 06:30 8.7-8.0
2019-Dec-08 06:25 8.7-7.0
2019-Dec-08 06:20 8.7-8.0
2019-Dec-08 06:15 8.7-8.0
2019-Dec-08 06:10 8.7-7.0
2019-Dec-08 06:05 260 3 8.7-7.0
2019-Dec-08 06:00 8.7-7.0
2019-Dec-08 05:55 8.7-7.0
2019-Dec-08 05:53 8.7-6.7
2019-Dec-08 05:50 8.7-7.0
2019-Dec-08 05:45 8.7-7.0
2019-Dec-08 05:40 290 4 8.7-6.0
2019-Dec-08 05:35 290 5 8.7-6.0
2019-Dec-08 05:30 280 5 8.7-6.0
2019-Dec-08 05:25 280 5 8.7-6.0
2019-Dec-08 05:20 300 4 8.7-6.0
2019-Dec-08 05:15 330 4 8.7-6.0
2019-Dec-08 05:10 310 4 8.7-6.0
2019-Dec-08 05:05 300 5 8.7-6.0
2019-Dec-08 04:55 310 4 8.7-6.0
2019-Dec-08 04:53 320 4 8.7-5.6
2019-Dec-08 04:50 330 4 8.7-4.0
2019-Dec-08 04:45 350 3 8.7-5.0
2019-Dec-08 04:40 330 5 8.7-5.0
2019-Dec-08 04:35 320 5 8.7-5.0
2019-Dec-08 04:30 320 4 8.7-5.0
2019-Dec-08 04:25 330 4 8.7-4.0
2019-Dec-08 04:20 360 4 8.7-4.0
2019-Dec-08 04:15 350 4 8.7-4.0
2019-Dec-08 04:10 360 4 8.7-4.0
2019-Dec-08 04:05 360 5 8.7-4.0
2019-Dec-08 04:00 350 5 8.7-4.0
2019-Dec-08 03:55 340 5 8.7-4.0
2019-Dec-08 03:53 340 4 8.7-4.4
2019-Dec-08 03:50 300 5 8.7-4.0
2019-Dec-08 03:45 270 6 8.7-4.0
2019-Dec-08 03:40 280 5 8.7-4.0
2019-Dec-08 03:35 330 6 8.7-4.0
2019-Dec-08 03:30 350 6 8.7-4.0
2019-Dec-08 03:25 350 6 8.7-4.0
2019-Dec-08 03:15 360 6 8.7-4.0
2019-Dec-08 03:10 360 4 8.7-4.0
2019-Dec-08 03:05 340 5 8.7-3.0
2019-Dec-08 03:00 340 6 8.7-3.0
2019-Dec-08 02:55 320 5 8.7-3.0
2019-Dec-08 02:53 330 5 8.7-3.3
2019-Dec-08 02:50 350 5 8.7-3.0
2019-Dec-08 02:45 360 6 8.7-3.0
2019-Dec-08 02:40 350 5 8.7-3.0
2019-Dec-08 02:35 330 4 8.7-4.0
2019-Dec-08 02:30 350 3 8.7-4.0
2019-Dec-08 02:25 350 4 8.7-3.0
2019-Dec-08 02:10 8.7-4.0
2019-Dec-08 02:05 8.7-4.0
2019-Dec-08 01:53 340 2 8.7-3.9
2019-Dec-08 01:50 330 3 8.7-4.0
2019-Dec-08 01:45 330 4 8.7-4.0
2019-Dec-08 01:40 320 4 8.7-4.0
2019-Dec-08 01:30 320 4 8.7-3.0
2019-Dec-08 01:25 310 4 8.7-3.0
2019-Dec-08 01:20 310 4 8.7-3.0
2019-Dec-08 01:15 310 5 8.7-3.0
2019-Dec-08 01:10 310 5 8.7-3.0
2019-Dec-08 01:05 320 5 8.7-3.0
2019-Dec-08 01:00 320 6 8.7-3.0
2019-Dec-08 00:55 320 6 8.7-2.0
2019-Dec-08 00:53 330 6 8.7-2.2
2019-Dec-08 00:50 320 6 8.7-2.0
2019-Dec-08 00:45 320 6 8.7-2.0
2019-Dec-08 00:40 330 6 8.7-2.0
2019-Dec-08 00:35 330 7 8.7-2.0
2019-Dec-08 00:30 310 5 8.7-2.0
2019-Dec-08 00:25 340 5 8.7-2.0
2019-Dec-08 00:15 360 5 8.7-2.0
2019-Dec-08 00:10 010 6 8.7-2.0
2019-Dec-08 00:05 360 3 8.7-2.0
2019-Dec-08 00:00 360 4 8.7-2.0
2019-Dec-07 23:55 350 5 8.7-2.0
2019-Dec-07 23:53 360 5 8.7-1.7
2019-Dec-07 23:50 360 5 8.7-2.0
2019-Dec-07 23:45 350 6 8.7-2.0
2019-Dec-07 23:40 340 6 8.7-2.0
2019-Dec-07 23:35 340 5 8.7-2.0
2019-Dec-07 23:30 350 6 8.7-2.0
2019-Dec-07 23:25 350 5 8.7-2.0
2019-Dec-07 23:20 360 6 8.7-2.0
2019-Dec-07 23:15 350 6 8.7-1.0
2019-Dec-07 23:10 350 6 8.7-2.0
2019-Dec-07 23:05 340 7 8.7-1.0
2019-Dec-07 23:00 340 5 8.7-1.0
2019-Dec-07 22:55 330 6 8.7-1.0
2019-Dec-07 22:53 340 7 8.7-1.1
2019-Dec-07 22:50 350 6 8.7-1.0
2019-Dec-07 22:45 360 3 8.7-1.0
2019-Dec-07 22:40 340 4 8.7-1.0
2019-Dec-07 22:35 330 4 8.7-2.0
2019-Dec-07 22:30 320 4 8.7-2.0
2019-Dec-07 22:25 330 3 8.7-2.0
2019-Dec-07 22:20 330 3 8.7-2.0
2019-Dec-07 22:15 8.7-1.0
2019-Dec-07 22:10 8.7-2.0
2019-Dec-07 22:05 320 3 8.7-1.0
2019-Dec-07 22:00 320 4 8.7-1.0
2019-Dec-07 21:55 330 5 8.7-1.0
2019-Dec-07 21:53 320 2 8.7-1.1
2019-Dec-07 21:50 310 3 8.7-1.0
2019-Dec-07 21:45 310 4 8.7-1.0
2019-Dec-07 21:40 330 4 8.7-0.0
2019-Dec-07 21:35 330 5 8.7-0.0
2019-Dec-07 21:30 320 5 8.7-0.0
2019-Dec-07 21:25 310 5 8.7-0.0
2019-Dec-07 21:20 300 5 8.7-0.0
2019-Dec-07 21:15 300 5 8.7 1.0
2019-Dec-07 21:10 310 5 8.7 1.0
2019-Dec-07 21:05 320 6 8.7 1.0
2019-Dec-07 21:00 290 5 8.7 1.0
2019-Dec-07 20:55 320 5 8.7 1.0
2019-Dec-07 20:53 310 5 8.7 0.6
2019-Dec-07 20:50 290 5 8.7 1.0
2019-Dec-07 20:45 290 6 8.7 1.0
2019-Dec-07 20:35 310 4 8.7 1.0
2019-Dec-07 20:30 320 9 8.7 1.0
2019-Dec-07 20:25 330 8 8.7 1.0
2019-Dec-07 20:20 330 9 8.7 1.0
2019-Dec-07 20:15 310 8 8.7 1.0
2019-Dec-07 20:10 330 11 gusting 16 8.7 1.0
2019-Dec-07 20:05 330 13 8.7 1.0
2019-Dec-07 20:00 320 12 8.7 1.0
2019-Dec-07 19:55 320 12 8.7 1.0
2019-Dec-07 19:53 320 12 8.7 1.1
2019-Dec-07 19:50 290 10 8.7 1.0
2019-Dec-07 19:45 320 11 8.7 1.0
2019-Dec-07 19:40 290 11 8.7 1.0
2019-Dec-07 19:35 290 9 8.7 2.0
2019-Dec-07 19:30 310 6 8.7 2.0
2019-Dec-07 19:25 330 7 8.7 2.0
2019-Dec-07 19:20 340 8 8.7 2.0
2019-Dec-07 19:15 330 9 gusting 15 8.7 2.0
2019-Dec-07 19:10 330 8 8.7 2.0
2019-Dec-07 19:05 290 7 8.7 1.0
2019-Dec-07 19:00 290 9 8.7 1.0
2019-Dec-07 18:55 310 6 8.7 2.0
2019-Dec-07 18:53 320 7 8.7 1.1
2019-Dec-07 18:50 300 8 8.7 1.0
2019-Dec-07 18:45 320 11 8.7 1.0
2019-Dec-07 18:35 320 10 8.7 1.0
2019-Dec-07 18:25 290 11 8.7 1.0
2019-Dec-07 18:20 290 12 8.7 1.0
2019-Dec-07 18:15 300 12 8.7 1.0
2019-Dec-07 18:10 290 11 8.7 1.0
2019-Dec-07 18:05 300 12 8.7 1.0
2019-Dec-07 18:00 290 12 gusting 19 8.7 1.0
2019-Dec-07 17:55 300 9 8.7 2.0
2019-Dec-07 17:53 320 7 8.7 1.7
2019-Dec-07 17:50 320 8 8.7 2.0
2019-Dec-07 17:45 340 7 8.7 1.0
2019-Dec-07 17:40 340 13 8.7 2.0
2019-Dec-07 17:35 340 11 8.7 1.0
2019-Dec-07 17:30 330 10 gusting 16 8.7 2.0
2019-Dec-07 17:25 330 8 8.7 1.0
2019-Dec-07 17:20 310 10 8.7 1.0
2019-Dec-07 17:15 320 10 8.7 1.0
2019-Dec-07 17:10 330 10 8.7 1.0
2019-Dec-07 17:05 310 10 8.7 1.0
2019-Dec-07 17:00 310 10 8.7 1.0
2019-Dec-07 16:55 320 10 8.7 1.0
2019-Dec-07 16:53 330 13 8.7 1.1
2019-Dec-07 16:50 290 10 8.7 1.0
2019-Dec-07 16:45 320 8 8.7 1.0
2019-Dec-07 16:40 290 11 gusting 16 8.7 1.0
2019-Dec-07 16:35 310 11 8.7 1.0
2019-Dec-07 16:30 310 11 8.7 1.0
2019-Dec-07 16:25 310 9 8.7 1.0
2019-Dec-07 16:20 320 12 8.7 1.0
2019-Dec-07 16:15 340 10 8.7 1.0
2019-Dec-07 16:10 330 9 8.7 1.0
2019-Dec-07 16:05 320 7 8.7 1.0
2019-Dec-07 16:00 330 7 8.7 1.0
2019-Dec-07 15:53 8.7-0.0
2019-Dec-07 15:50 310 8 8.7-0.0
2019-Dec-07 15:45 300 9 8.7-0.0
2019-Dec-07 15:40 300 8 8.7-0.0
2019-Dec-07 15:35 280 9 8.7 1.0
2019-Dec-07 15:30 300 7 8.7-0.0
2019-Dec-07 15:20 310 6 8.7-0.0
2019-Dec-07 15:15 310 7 8.7-0.0
2019-Dec-07 15:10 290 5 8.7-1.0
2019-Dec-07 15:05 300 4 8.7-0.0
2019-Dec-07 15:00 8.7-1.0
2019-Dec-07 14:55 8.7-1.0
2019-Dec-07 14:53 8.7-1.1
2019-Dec-07 14:45 310 4 8.7-1.0
2019-Dec-07 14:40 350 4 8.7-1.0
2019-Dec-07 14:30 320 5 8.7-1.0
2019-Dec-07 14:25 330 6 8.7-2.0
2019-Dec-07 14:20 300 5 8.7-2.0
2019-Dec-07 14:15 320 6 8.7-2.0
2019-Dec-07 13:53 330 2 8.7-2.2
2019-Dec-07 13:50 8.7-3.0
2019-Dec-07 13:40 8.7-3.0
2019-Dec-07 13:20 8.7-4.0
2019-Dec-07 13:15 8.7-4.0
2019-Dec-07 13:10 8.7-4.0
2019-Dec-07 13:05 8.7-4.0
2019-Dec-07 13:00 160 3 8.7-5.0